Zurück zum Katalog

OPS 7323

DMSP 5B F3

AktivWetterSSO
NORAD 6275·PAYLOAD·🇺🇸 United States

Gestartet Nov 9, 1972 von Vandenberg Space Force Base

Loading…

Nächste Überflüge (nächste 24 Stunden)

TLE

AktuellSource: Space-Track

Epoche: Sep 14, 2026, 10:47 UTC

1 06275U 72089A   26257.44932066  .00000179  00000-0  85528-4 0  9991
2 06275  98.5421  62.4113 0035647  59.2902 301.1785 14.30003293797430

Verfolge OPS 7323 in Echtzeit mit AllMySat

Download on the App Store